Weather History for China Lake, CA

Change the Weather History Date:

Wednesday, October 19, 2011

  Actual Average Record
Temperature  
Mean Temperature 67 °F -  
Max Temperature 88 °F 77 °F 91 °F (2003)
Min Temperature 46 °F 49 °F 39 °F (1999)
Cooling Degree Days 2    
Growing Degree Days 17 (Base 50)    
Moisture  
Dew Point 28 °F    
Average Humidity 25    
Maximum Humidity 39    
Minimum Humidity 13    
Precipitation  
Precipitation 0.00 in - - ()
Sea Level Pressure  
Sea Level Pressure 29.88 in    
Wind  
Wind Speed 4 mph (South)    
Max Wind Speed 9 mph    
Max Gust Speed -    
Visibility 10 miles    
Events      
Averages and records for this station are not official NWS values.
T = Trace of Precipitation, MM = Missing Value Source: NWS Daily Summary

Daily Weather History Graph

Daily Weather History Graph

Search for Another Location

Airport:

Trip Planner

Search our weather history database for the weather conditions in past years. The results will help you decide how hot, cold, wet, or windy it might be!

Date:

Astronomy

Oct. 19, 2011 Rise Set
Actual Time 7:00 AM PDT 6:10 PM PDT
Civil Twilight 6:34 AM PDT 6:36 PM PDT
Nautical Twilight 6:05 AM PDT 7:05 PM PDT
Astronomical Twilight 5:35 AM PDT 7:35 PM PDT
Moon No Moon Rise 1:29 PM PDT (10/19)
Length of Visible Light 12h 01m
Length of Day
11h 09m
Waning Gibbous, 54% of the Moon is Illuminated
Oct 19
Waning Gibbous
Oct 19
Last Quarter
Oct 26
New
Nov 2
First Quarter
Nov 10
Full

Hourly Weather History & Observations

Time (PDT) Temp. Dew Point Humidity Pressure Visibility Wind Dir Wind Speed Gust Speed Precip Events Conditions
12:56 AM 53.1 °F 18.0 °F 25% 29.94 in 10.0 mi NNW 3.5 mph - N/A   Clear
1:56 AM 55.9 °F 19.9 °F 25% 29.92 in 10.0 mi SSE 3.5 mph - N/A   Clear
2:56 AM 52.0 °F 19.9 °F 28% 29.91 in 10.0 mi South 6.9 mph - N/A   Clear
3:56 AM 52.0 °F 21.0 °F 30% 29.89 in 10.0 mi SSW 5.8 mph - N/A   Clear
4:56 AM 48.9 °F 21.0 °F 33% 29.91 in 10.0 mi NNW 3.5 mph - N/A   Clear
5:56 AM 48.0 °F 19.0 °F 32% 29.92 in 10.0 mi SW 9.2 mph - N/A   Clear
6:56 AM 46.9 °F 19.9 °F 34% 29.92 in 10.0 mi South 4.6 mph - N/A   Clear
7:56 AM 54.0 °F 21.9 °F 29% 29.93 in 10.0 mi Calm Calm - N/A   Clear
8:56 AM 60.1 °F 21.9 °F 23% 29.93 in 10.0 mi Calm Calm - N/A   Clear
9:56 AM 69.1 °F 21.9 °F 17% 29.92 in 10.0 mi Calm Calm - N/A   Clear
10:56 AM 73.9 °F 23.0 °F 15% 29.91 in 10.0 mi Calm Calm - N/A   Clear
11:56 AM 80.1 °F 26.1 °F 14% 29.89 in 10.0 mi Calm Calm - N/A   Clear
12:56 PM 82.0 °F 30.0 °F 15% 29.87 in 10.0 mi Calm Calm - N/A   Clear
1:56 PM 84.9 °F 32.0 °F 15% 29.83 in 10.0 mi East 3.5 mph - N/A   Clear
2:56 PM 88.0 °F 33.1 °F 14% 29.81 in 10.0 mi Calm Calm - N/A   Clear
3:56 PM 88.0 °F 34.0 °F 15% 29.80 in 10.0 mi Variable 5.8 mph - N/A   Clear
4:56 PM 88.0 °F 34.0 °F 15% 29.79 in 10.0 mi ENE 3.5 mph - N/A   Clear
5:56 PM 84.0 °F 27.0 °F 13% 29.81 in 10.0 mi SE 6.9 mph - N/A   Clear
6:56 PM 78.1 °F 37.0 °F 23% 29.82 in 10.0 mi South 6.9 mph - N/A   Clear
7:56 PM 73.0 °F 41.0 °F 31% 29.84 in 10.0 mi SSW 9.2 mph - N/A   Clear
8:56 PM 69.1 °F 42.1 °F 38% 29.86 in 10.0 mi South 8.1 mph - N/A   Clear
9:56 PM 68.0 °F 36.0 °F 31% 29.88 in 10.0 mi SW 9.2 mph - N/A   Clear
10:56 PM 64.9 °F 37.0 °F 36% 29.89 in 10.0 mi SSW 6.9 mph - N/A   Clear
11:56 PM 62.1 °F 37.0 °F 39% 29.90 in 10.0 mi SSW 5.8 mph - N/A   Clear